When you browse on this site, cookies collect data to enhance your experience and personalize the content and advertising you see.
Visit our Privacy Policy to learn more. By continuing to use the site, you agree to this use of cookies and data.
  • Em Portugal
  • Lista de países
  • Para 7 dias
  • Temperatura da água
  • Mapas de satélite
  • Mapa do tempo
  • Widgets de tempo
  • user-avatar
    Iniciar Sessão

    Previsão horária em Pekaninko

    Hoje, 16 Janeiro, Quarta-feira

    Tempo Temperatura Precipitação Vento Pressão Humidade
    00:00 +2°C° 0 mm 9 m/s 748 mmHg 86%
    01:00 +3°C° 0 mm 6 m/s 749 mmHg 86%
    02:00 +3°C° 0.2 mm 6 m/s 749 mmHg 88%
    03:00 +3°C° 0.2 mm 6 m/s 749 mmHg 90%
    04:00 +3°C° 0.2 mm 6 m/s 749 mmHg 91%
    05:00 +3°C° 0.3 mm 5 m/s 750 mmHg 93%
    06:00 +3°C° 0.3 mm 5 m/s 750 mmHg 94%
    07:00 +4°C° 0 mm 2 m/s 750 mmHg 95%
    08:00 +4°C° 0.3 mm 4 m/s 750 mmHg 93%
    09:00 +3°C° 0.3 mm 5 m/s 750 mmHg 91%
    10:00 +4°C° 0.3 mm 7 m/s 751 mmHg 89%
    11:00 +4°C° 0 mm 7 m/s 750 mmHg 87%
    12:00 +4°C° 0 mm 7 m/s 750 mmHg 85%
    13:00 +4°C° 0 mm 7 m/s 750 mmHg 83%
    14:00 +4°C° 0.1 mm 7 m/s 750 mmHg 83%
    15:00 +4°C° 0.1 mm 7 m/s 749 mmHg 84%
    16:00 +4°C° 0.1 mm 7 m/s 749 mmHg 85%
    17:00 +4°C° 0 mm 7 m/s 749 mmHg 85%
    18:00 +4°C° 0 mm 7 m/s 749 mmHg 85%
    19:00 +4°C° 0 mm 8 m/s 748 mmHg 85%
    20:00 +4°C° 0.1 mm 8 m/s 748 mmHg 84%
    21:00 +4°C° 0.1 mm 8 m/s 747 mmHg 83%
    22:00 +4°C° 0.1 mm 8 m/s 747 mmHg 83%
    23:00 +2°C° 0.2 mm 8 m/s 746 mmHg 82%

    Amanhã, 17 Janeiro, Quinta-feira

    Tempo Temperatura Precipitação Vento Pressão Humidade
    00:00 +2°C° 0.2 mm 8 m/s 746 mmHg 82%
    01:00 +2°C° 0.2 mm 7 m/s 745 mmHg 82%
    02:00 +1°C° 0.5 mm 8 m/s 744 mmHg 82%
    03:00 +1°C° 0.5 mm 8 m/s 744 mmHg 81%
    04:00 +1°C° 0.5 mm 8 m/s 743 mmHg 81%
    05:00 +1°C° 0.7 mm 8 m/s 743 mmHg 81%
    06:00 +1°C° 0.7 mm 8 m/s 743 mmHg 82%
    07:00 +1°C° 0.7 mm 8 m/s 743 mmHg 82%
    08:00 +1°C° 0.5 mm 8 m/s 743 mmHg 82%
    09:00 +2°C° 0.5 mm 8 m/s 743 mmHg 82%
    10:00 +3°C° 0.5 mm 7 m/s 744 mmHg 82%
    11:00 +2°C° 0.1 mm 8 m/s 744 mmHg 78%
    12:00 +2°C° 0.1 mm 8 m/s 744 mmHg 73%
    13:00 +4°C° 0.1 mm 8 m/s 744 mmHg 69%
    14:00 +2°C° 0.1 mm 8 m/s 744 mmHg 70%
    15:00 +2°C° 0.1 mm 8 m/s 744 mmHg 71%
    16:00 +2°C° 0.1 mm 8 m/s 744 mmHg 73%
    17:00 +2°C° 0 mm 7 m/s 744 mmHg 73%
    18:00 +2°C° 0 mm 7 m/s 744 mmHg 73%
    19:00 +2°C° 0 mm 7 m/s 745 mmHg 73%
    20:00 +1°C° 0 mm 6 m/s 745 mmHg 74%
    21:00 +1°C° 0 mm 6 m/s 745 mmHg 75%
    22:00 +1°C° 0 mm 6 m/s 745 mmHg 77%
    23:00 +1°C° 0.1 mm 6 m/s 746 mmHg 78%

    Depois de amanhã, 18 Janeiro, Sexta-feira

    Tempo Temperatura Precipitação Vento Pressão Humidade
    00:00 -1°C° 0.1 mm 6 m/s 746 mmHg 79%
    01:00 -1°C° 0.1 mm 7 m/s 747 mmHg 80%
    02:00 -1°C° 0.4 mm 8 m/s 748 mmHg 81%
    03:00 -1°C° 0.4 mm 9 m/s 748 mmHg 83%
    04:00 -2°C° 0.4 mm 10 m/s 749 mmHg 84%
    05:00 -2°C° 0.3 mm 8 m/s 750 mmHg 82%
    06:00 -2°C° 0.3 mm 7 m/s 752 mmHg 79%
    07:00 -2°C° 0.3 mm 6 m/s 753 mmHg 76%
    08:00 -2°C° 0 mm 6 m/s 754 mmHg 75%
    09:00 -2°C° 0 mm 5 m/s 755 mmHg 74%
    10:00 -2°C° 0 mm 5 m/s 756 mmHg 73%
    11:00 -1°C° 0 mm 5 m/s 757 mmHg 70%
    12:00 -1°C° 0 mm 5 m/s 757 mmHg 67%
    13:00 0°C° 0 mm 5 m/s 758 mmHg 64%
    14:00 0°C° 0.1 mm 5 m/s 758 mmHg 68%
    15:00 -1°C° 0.1 mm 5 m/s 759 mmHg 72%
    16:00 -1°C° 0.1 mm 4 m/s 759 mmHg 76%
    17:00 -2°C° 0.1 mm 5 m/s 759 mmHg 77%
    18:00 -2°C° 0.1 mm 5 m/s 759 mmHg 78%
    19:00 -2°C° 0.1 mm 5 m/s 760 mmHg 79%
    20:00 -2°C° 0 mm 5 m/s 760 mmHg 81%
    21:00 -2°C° 0 mm 5 m/s 760 mmHg 82%
    22:00 -2°C° 0 mm 5 m/s 761 mmHg 84%
    23:00 -2°C° 0 mm 4 m/s 761 mmHg 86%

    19 Janeiro, Sábado

    Tempo Temperatura Precipitação Vento Pressão Humidade
    00:00 -3°C° 0 mm 4 m/s 761 mmHg 88%
    01:00 -3°C° 0 mm 4 m/s 761 mmHg 90%
    02:00 -3°C° 0 mm 4 m/s 761 mmHg 91%
    03:00 -3°C° 0 mm 4 m/s 761 mmHg 92%
    04:00 -3°C° 0 mm 4 m/s 761 mmHg 93%
    05:00 -3°C° 0 mm 4 m/s 761 mmHg 93%
    06:00 -3°C° 0 mm 4 m/s 761 mmHg 94%
    07:00 -3°C° 0 mm 4 m/s 761 mmHg 94%
    08:00 -3°C° 0 mm 4 m/s 762 mmHg 93%
    09:00 -2°C° 0 mm 3 m/s 762 mmHg 92%
    10:00 -1°C° 0 mm 3 m/s 762 mmHg 91%
    11:00 -1°C° 0 mm 3 m/s 762 mmHg 89%
    12:00 0°C° 0 mm 3 m/s 762 mmHg 87%
    13:00 0°C° 0 mm 3 m/s 762 mmHg 85%
    14:00 +1°C° 0 mm 2 m/s 762 mmHg 88%
    15:00 -1°C° 0 mm 2 m/s 762 mmHg 90%
    16:00 -1°C° 0 mm 2 m/s 762 mmHg 93%
    17:00 -1°C° 0 mm 2 m/s 762 mmHg 93%
    18:00 -2°C° 0 mm 2 m/s 762 mmHg 93%
    19:00 -2°C° 0 mm 2 m/s 762 mmHg 94%
    20:00 -2°C° 0 mm 2 m/s 762 mmHg 93%
    21:00 -2°C° 0 mm 2 m/s 762 mmHg 92%
    22:00 -2°C° 0 mm 2 m/s 762 mmHg 92%
    23:00 0°C° 0 mm 1 m/s 762 mmHg 91%

    20 Janeiro, Domingo

    Tempo Temperatura Precipitação Vento Pressão Humidade
    00:00 0°C° 0 mm 1 m/s 762 mmHg 91%
    01:00 0°C° 0 mm 1 m/s 762 mmHg 90%
    02:00 -1°C° 0 mm 1 m/s 762 mmHg 90%
    03:00 -1°C° 0 mm 1 m/s 761 mmHg 90%
    04:00 -1°C° 0 mm 1 m/s 761 mmHg 90%
    05:00 -1°C° 0 mm 1 m/s 761 mmHg 90%
    06:00 -1°C° 0 mm 1 m/s 761 mmHg 90%
    07:00 -1°C° 0 mm 1 m/s 761 mmHg 90%
    08:00 -1°C° 0 mm 1 m/s 761 mmHg 88%
    09:00 0°C° 0 mm 1 m/s 762 mmHg 86%
    10:00 -2°C° 0 mm 2 m/s 762 mmHg 84%
    11:00 -1°C° 0 mm 2 m/s 762 mmHg 82%
    12:00 -1°C° 0 mm 2 m/s 762 mmHg 80%
    13:00 +1°C° 0 mm 2 m/s 762 mmHg 78%
    14:00 -1°C° 0 mm 2 m/s 762 mmHg 81%
    15:00 -1°C° 0 mm 3 m/s 762 mmHg 85%
    16:00 -2°C° 0 mm 3 m/s 761 mmHg 89%
    17:00 -2°C° 0 mm 3 m/s 762 mmHg 89%
    18:00 -2°C° 0 mm 3 m/s 762 mmHg 90%
    19:00 -2°C° 0 mm 4 m/s 762 mmHg 91%
    20:00 -2°C° 0.1 mm 4 m/s 762 mmHg 86%
    21:00 -2°C° 0.1 mm 4 m/s 763 mmHg 82%
    22:00 -1°C° 0.1 mm 4 m/s 763 mmHg 78%
    23:00 -2°C° 0 mm 4 m/s 764 mmHg 77%

    21 Janeiro, Segunda-feira

    Tempo Temperatura Precipitação Vento Pressão Humidade
    00:00 -3°C° 0 mm 4 m/s 764 mmHg 77%
    01:00 -4°C° 0 mm 3 m/s 764 mmHg 76%
    02:00 -4°C° 0 mm 3 m/s 765 mmHg 75%
    03:00 -2°C° 0 mm 3 m/s 765 mmHg 74%
    04:00 -2°C° 0 mm 3 m/s 765 mmHg 74%
    05:00 -2°C° 0 mm 3 m/s 766 mmHg 72%
    06:00 -2°C° 0 mm 2 m/s 766 mmHg 71%
    07:00 -2°C° 0 mm 2 m/s 766 mmHg 69%
    08:00 -2°C° 0 mm 2 m/s 767 mmHg 68%
    09:00 0°C° 0 mm 1 m/s 767 mmHg 67%
    10:00 0°C° 0 mm 1 m/s 768 mmHg 65%
    11:00 +1°C° 0 mm 1 m/s 768 mmHg 63%
    12:00 +1°C° 0 mm 1 m/s 768 mmHg 60%
    13:00 +1°C° 0 mm 2 m/s 768 mmHg 57%
    14:00 +1°C° 0 mm 1 m/s 768 mmHg 61%
    15:00 0°C° 0 mm 1 m/s 768 mmHg 64%
    16:00 0°C° 0 mm 1 m/s 768 mmHg 68%
    17:00 -1°C° 0 mm 1 m/s 768 mmHg 70%
    18:00 -1°C° 0 mm 1 m/s 768 mmHg 71%
    19:00 -1°C° 0 mm 1 m/s 768 mmHg 73%
    20:00 -1°C° 0 mm 1 m/s 768 mmHg 74%
    21:00 -2°C° 0 mm 1 m/s 768 mmHg 75%
    22:00 -4°C° 0 mm 2 m/s 768 mmHg 76%
    23:00 -4°C° 0 mm 2 m/s 767 mmHg 76%
    Mostrar mais